Time,TemperatureF,DewpointF,PressureIn,WindDirection,WindDirectionDegrees,WindSpeedMPH,WindSpeedGustMPH,Humidity,HourlyPrecipIn,Conditions,Clouds,dailyrainin,SolarRadiationWatts/m^2,SoftwareType,DateUTC
2017-05-27 00:04:00,55.2,54.5,29.89,NNE,32,0.0,0.0,97,0.00,,,0.00,0.00,Weather logger V3.1.,2017-05-27 04:04:00,
2017-05-27 00:10:00,55.0,54.3,29.90,NNE,32,0.0,0.0,97,0.00,,,0.00,0.00,Weather logger V3.1.,2017-05-27 04:10:00,
2017-05-27 00:15:00,54.9,54.1,29.90,NNE,33,0.0,0.0,97,0.00,,,0.00,0.00,Weather logger V3.1.,2017-05-27 04:15:00,
2017-05-27 00:20:00,54.7,54.0,29.89,NNE,32,0.0,0.0,97,0.00,,,0.00,0.00,Weather logger V3.1.,2017-05-27 04:20:00,
2017-05-27 00:25:00,54.5,53.8,29.89,NNE,32,0.0,0.0,97,0.00,,,0.00,0.00,Weather logger V3.1.,2017-05-27 04:25:00,
2017-05-27 00:30:00,54.5,53.8,29.89,NNE,32,0.0,0.0,97,0.00,,,0.00,0.00,Weather logger V3.1.,2017-05-27 04:30:00,
2017-05-27 00:35:00,54.5,53.8,29.89,NNE,32,0.0,0.0,97,0.00,,,0.00,0.00,Weather logger V3.1.,2017-05-27 04:35:00,
2017-05-27 00:40:00,54.5,53.8,29.89,NNE,32,0.0,0.0,97,0.00,,,0.00,0.00,Weather logger V3.1.,2017-05-27 04:40:00,
2017-05-27 00:45:00,54.5,53.8,29.90,NNE,32,0.0,0.0,97,0.00,,,0.00,0.00,Weather logger V3.1.,2017-05-27 04:45:00,
2017-05-27 00:50:00,54.5,53.8,29.91,NNE,26,0.0,0.0,97,0.00,,,0.00,0.00,Weather logger V3.1.,2017-05-27 04:50:00,
2017-05-27 00:53:00,54.5,53.8,29.90,NNE,12,0.0,0.0,97,0.00,,,0.00,0.00,Weather logger V3.1.,2017-05-27 04:53:00,
2017-05-27 00:58:00,54.5,53.8,29.91,North,11,0.0,0.0,97,0.00,,,0.00,0.00,Weather logger V3.1.,2017-05-27 04:58:00,
2017-05-27 01:03:00,54.3,53.6,29.91,NNE,12,0.0,0.0,97,0.00,,,0.00,0.00,Weather logger V3.1.,2017-05-27 05:03:00,
2017-05-27 01:08:00,54.1,53.4,29.90,NNE,12,0.0,0.0,97,0.00,,,0.00,0.00,Weather logger V3.1.,2017-05-27 05:08:00,
2017-05-27 01:13:00,54.0,53.2,29.90,NNE,12,0.0,0.0,97,0.00,,,0.00,0.00,Weather logger V3.1.,2017-05-27 05:13:00,
2017-05-27 01:18:00,53.8,53.1,29.89,NNE,12,0.0,0.0,97,0.00,,,0.00,0.00,Weather logger V3.1.,2017-05-27 05:18:00,
2017-05-27 01:23:00,53.8,53.1,29.90,NNE,12,0.0,0.0,97,0.00,,,0.00,0.00,Weather logger V3.1.,2017-05-27 05:23:00,
2017-05-27 01:28:00,53.8,53.1,29.90,NNE,12,0.0,0.0,97,0.00,,,0.00,0.00,Weather logger V3.1.,2017-05-27 05:28:00,
2017-05-27 01:34:00,53.6,52.9,29.90,North,3,0.0,0.0,97,0.00,,,0.00,0.00,Weather logger V3.1.,2017-05-27 05:34:00,
2017-05-27 01:39:00,53.6,52.9,29.91,North,3,0.0,0.0,97,0.00,,,0.00,0.00,Weather logger V3.1.,2017-05-27 05:39:00,
2017-05-27 01:44:00,53.8,53.1,29.91,North,3,0.0,0.0,97,0.00,,,0.00,0.00,Weather logger V3.1.,2017-05-27 05:44:00,
2017-05-27 01:49:00,53.8,53.1,29.92,North,2,0.0,0.0,97,0.00,,,0.00,0.00,Weather logger V3.1.,2017-05-27 05:49:00,
2017-05-27 01:54:00,53.8,53.1,29.91,North,2,0.0,0.0,97,0.00,,,0.00,0.00,Weather logger V3.1.,2017-05-27 05:54:00,
2017-05-27 01:59:00,53.6,53.1,29.91,North,2,0.0,0.0,98,0.00,,,0.00,0.00,Weather logger V3.1.,2017-05-27 05:59:00,
2017-05-27 02:04:00,53.6,52.9,29.91,North,2,0.0,0.0,97,0.00,,,0.00,0.00,Weather logger V3.1.,2017-05-27 06:04:00,
2017-05-27 02:09:00,53.6,53.1,29.92,North,2,0.0,0.0,98,0.00,,,0.00,0.00,Weather logger V3.1.,2017-05-27 06:09:00,
2017-05-27 02:14:00,53.4,52.9,29.92,North,2,0.0,0.0,98,0.00,,,0.00,0.00,Weather logger V3.1.,2017-05-27 06:14:00,
2017-05-27 02:19:00,53.4,52.9,29.92,North,2,0.0,0.0,98,0.00,,,0.00,0.00,Weather logger V3.1.,2017-05-27 06:19:00,
2017-05-27 02:24:00,53.4,52.7,29.92,North,2,0.0,0.0,97,0.00,,,0.00,0.00,Weather logger V3.1.,2017-05-27 06:24:00,
2017-05-27 02:30:00,53.4,52.7,29.92,North,2,0.0,0.0,97,0.00,,,0.00,0.00,Weather logger V3.1.,2017-05-27 06:30:00,
2017-05-27 02:35:00,53.4,52.7,29.92,North,2,0.0,0.0,97,0.00,,,0.00,0.00,Weather logger V3.1.,2017-05-27 06:35:00,
2017-05-27 02:40:00,53.6,52.9,29.93,North,2,0.0,0.0,97,0.00,,,0.00,0.00,Weather logger V3.1.,2017-05-27 06:40:00,
2017-05-27 02:45:00,53.8,53.1,29.92,North,2,0.0,0.0,97,0.00,,,0.00,0.00,Weather logger V3.1.,2017-05-27 06:45:00,
2017-05-27 02:50:00,54.0,53.2,29.92,North,2,0.0,0.0,97,0.00,,,0.00,0.00,Weather logger V3.1.,2017-05-27 06:50:00,
2017-05-27 02:55:00,54.1,53.4,29.92,North,2,0.0,0.0,97,0.00,,,0.00,0.00,Weather logger V3.1.,2017-05-27 06:55:00,
2017-05-27 03:00:00,54.1,53.4,29.92,ENE,63,0.0,0.0,97,0.00,,,0.00,0.00,Weather logger V3.1.,2017-05-27 07:00:00,
2017-05-27 03:05:00,54.5,53.8,29.91,ENE,66,0.0,0.0,97,0.00,,,0.00,0.00,Weather logger V3.1.,2017-05-27 07:05:00,
2017-05-27 03:10:00,54.7,54.5,29.91,ENE,66,0.0,0.0,99,0.00,,,0.00,0.00,Weather logger V3.1.,2017-05-27 07:10:00,
2017-05-27 03:15:00,54.9,54.7,29.88,ENE,62,1.8,2.5,99,0.00,,,0.00,0.00,Weather logger V3.1.,2017-05-27 07:15:00,
2017-05-27 03:20:00,55.2,55.0,29.85,ENE,74,0.0,0.0,99,0.00,,,0.00,0.00,Weather logger V3.1.,2017-05-27 07:20:00,
2017-05-27 03:25:00,55.4,55.2,29.87,East,100,0.0,0.0,99,0.00,,,0.00,0.00,Weather logger V3.1.,2017-05-27 07:25:00,
2017-05-27 03:30:00,55.8,55.6,29.87,ENE,63,0.0,0.0,99,0.00,,,0.00,0.00,Weather logger V3.1.,2017-05-27 07:30:00,
2017-05-27 03:35:00,55.9,55.8,29.89,NNW,341,2.5,2.5,99,0.00,,,0.00,0.00,Weather logger V3.1.,2017-05-27 07:35:00,
2017-05-27 03:40:00,56.3,56.1,29.87,WNW,293,2.5,2.5,99,0.00,,,0.00,0.00,Weather logger V3.1.,2017-05-27 07:40:00,
2017-05-27 03:46:00,56.5,56.3,29.87,ENE,57,0.0,0.0,99,0.00,,,0.00,0.00,Weather logger V3.1.,2017-05-27 07:46:00,
2017-05-27 03:51:00,56.5,56.3,29.87,ENE,57,0.0,0.0,99,0.00,,,0.00,0.00,Weather logger V3.1.,2017-05-27 07:51:00,
2017-05-27 03:56:00,56.7,56.5,29.87,North,8,0.0,0.0,99,0.00,,,0.00,0.00,Weather logger V3.1.,2017-05-27 07:56:00,
2017-05-27 04:01:00,56.8,56.7,29.87,ENE,74,0.0,0.0,99,0.00,,,0.00,0.00,Weather logger V3.1.,2017-05-27 08:01:00,
2017-05-27 04:06:00,56.8,56.7,29.87,NE,45,0.0,0.0,99,0.00,,,0.00,0.00,Weather logger V3.1.,2017-05-27 08:06:00,
2017-05-27 04:11:00,56.7,56.5,29.87,NNE,21,0.0,0.0,99,0.00,,,0.00,0.00,Weather logger V3.1.,2017-05-27 08:11:00,
2017-05-27 04:16:00,56.7,56.5,29.87,ENE,59,0.0,0.0,99,0.00,,,0.00,0.00,Weather logger V3.1.,2017-05-27 08:16:00,
2017-05-27 04:21:00,56.7,56.5,29.87,ENE,58,0.0,0.0,99,0.00,,,0.00,0.00,Weather logger V3.1.,2017-05-27 08:21:00,
2017-05-27 04:26:00,56.7,56.5,29.87,ENE,59,0.0,0.0,99,0.00,,,0.00,0.00,Weather logger V3.1.,2017-05-27 08:26:00,
2017-05-27 04:31:00,56.7,56.5,29.87,ENE,58,0.0,0.0,99,0.00,,,0.00,0.00,Weather logger V3.1.,2017-05-27 08:31:00,
2017-05-27 04:36:00,56.7,56.5,29.86,ENE,59,0.0,0.0,99,0.00,,,0.00,0.00,Weather logger V3.1.,2017-05-27 08:36:00,
2017-05-27 04:41:00,56.8,56.7,29.87,ENE,59,0.0,0.0,99,0.00,,,0.00,0.00,Weather logger V3.1.,2017-05-27 08:41:00,
2017-05-27 04:46:00,56.8,56.7,29.85,ENE,69,0.0,0.0,99,0.00,,,0.00,0.00,Weather logger V3.1.,2017-05-27 08:46:00,
2017-05-27 04:51:00,56.8,56.7,29.85,ENE,69,0.0,0.0,99,0.00,,,0.00,0.00,Weather logger V3.1.,2017-05-27 08:51:00,
2017-05-27 04:56:00,56.8,56.7,29.85,North,11,0.0,0.0,99,0.00,,,0.00,0.00,Weather logger V3.1.,2017-05-27 08:56:00,
2017-05-27 05:02:00,56.8,56.7,29.85,NNE,19,0.0,0.0,99,0.00,,,0.00,0.00,Weather logger V3.1.,2017-05-27 09:02:00,
2017-05-27 05:07:00,56.8,56.7,29.85,NNE,20,0.0,0.0,99,0.00,,,0.00,0.00,Weather logger V3.1.,2017-05-27 09:07:00,
2017-05-27 05:12:00,56.8,56.7,29.85,NNE,20,0.0,0.0,99,0.00,,,0.00,0.00,Weather logger V3.1.,2017-05-27 09:12:00,
2017-05-27 05:17:00,56.8,56.7,29.85,NNE,20,0.0,0.0,99,0.00,,,0.00,0.00,Weather logger V3.1.,2017-05-27 09:17:00,
2017-05-27 05:22:00,56.8,56.7,29.85,NNE,20,0.0,0.0,99,0.00,,,0.00,0.00,Weather logger V3.1.,2017-05-27 09:22:00,
2017-05-27 05:27:00,56.8,56.7,29.86,NNE,20,0.0,0.0,99,0.00,,,0.00,0.00,Weather logger V3.1.,2017-05-27 09:27:00,
2017-05-27 05:32:00,57.0,56.8,29.86,NNE,20,0.0,0.0,99,0.00,,,0.00,0.00,Weather logger V3.1.,2017-05-27 09:32:00,
2017-05-27 05:37:00,57.0,56.8,29.87,NNE,20,0.0,0.0,99,0.00,,,0.00,0.00,Weather logger V3.1.,2017-05-27 09:37:00,
2017-05-27 05:42:00,57.0,56.8,29.86,NNE,20,0.0,0.0,99,0.00,,,0.00,0.00,Weather logger V3.1.,2017-05-27 09:42:00,
2017-05-27 05:47:00,57.0,56.8,29.87,NNE,20,0.0,0.0,99,0.00,,,0.00,0.00,Weather logger V3.1.,2017-05-27 09:47:00,
2017-05-27 05:52:00,57.0,56.8,29.86,NNE,21,0.0,0.0,99,0.00,,,0.00,0.00,Weather logger V3.1.,2017-05-27 09:52:00,
2017-05-27 05:57:00,57.0,56.8,29.87,NNE,15,0.0,0.0,99,0.00,,,0.00,0.00,Weather logger V3.1.,2017-05-27 09:57:00,
2017-05-27 06:02:00,57.0,56.8,29.86,NE,34,0.0,0.0,99,0.00,,,0.00,0.32,Weather logger V3.1.,2017-05-27 10:02:00,
2017-05-27 06:07:00,57.2,57.0,29.87,NNE,32,0.0,0.0,99,0.00,,,0.00,1.49,Weather logger V3.1.,2017-05-27 10:07:00,
2017-05-27 06:12:00,57.2,57.0,29.87,NNE,33,0.0,0.0,99,0.00,,,0.00,2.93,Weather logger V3.1.,2017-05-27 10:12:00,
2017-05-27 06:18:00,57.2,57.0,29.87,ESE,120,0.0,0.0,99,0.00,,,0.00,3.20,Weather logger V3.1.,2017-05-27 10:18:00,
2017-05-27 06:23:00,57.4,57.2,29.87,ENE,63,0.0,0.0,99,0.00,,,0.00,1.60,Weather logger V3.1.,2017-05-27 10:23:00,
2017-05-27 06:28:00,57.6,57.4,29.86,ENE,72,0.0,0.0,99,0.00,,,0.00,5.51,Weather logger V3.1.,2017-05-27 10:28:00,
2017-05-27 06:33:00,57.7,57.6,29.86,ENE,74,0.0,0.0,99,0.00,,,0.00,12.13,Weather logger V3.1.,2017-05-27 10:33:00,
2017-05-27 06:38:00,57.7,57.6,29.87,ENE,63,0.0,0.0,99,0.00,,,0.00,20.73,Weather logger V3.1.,2017-05-27 10:38:00,
2017-05-27 06:43:00,57.9,57.7,29.86,ENE,68,0.0,0.0,99,0.00,,,0.00,27.93,Weather logger V3.1.,2017-05-27 10:43:00,
2017-05-27 06:48:00,57.9,57.7,29.86,ENE,68,0.0,0.0,99,0.00,,,0.00,27.21,Weather logger V3.1.,2017-05-27 10:48:00,
2017-05-27 06:53:00,58.1,57.9,29.86,ENE,75,0.0,0.0,99,0.00,,,0.00,18.56,Weather logger V3.1.,2017-05-27 10:53:00,
2017-05-27 06:58:00,58.1,57.9,29.86,ENE,75,0.0,0.0,99,0.00,,,0.00,27.63,Weather logger V3.1.,2017-05-27 10:58:00,
2017-05-27 07:03:00,58.1,57.9,29.86,ENE,75,0.0,0.0,99,0.00,,,0.00,54.61,Weather logger V3.1.,2017-05-27 11:03:00,
2017-05-27 07:08:00,58.3,58.1,29.85,ENE,73,0.0,0.0,99,0.00,,,0.00,59.68,Weather logger V3.1.,2017-05-27 11:08:00,
2017-05-27 07:13:00,58.5,58.3,29.85,ENE,73,0.0,0.0,99,0.00,,,0.00,42.64,Weather logger V3.1.,2017-05-27 11:13:00,
2017-05-27 07:18:00,58.6,58.5,29.85,ENE,72,0.0,0.0,99,0.00,,,0.00,56.66,Weather logger V3.1.,2017-05-27 11:18:00,
2017-05-27 07:23:00,58.8,58.6,29.85,ENE,71,0.0,0.0,99,0.00,,,0.00,80.17,Weather logger V3.1.,2017-05-27 11:23:00,
2017-05-27 07:28:00,59.2,59.0,29.84,North,7,0.0,0.0,99,0.00,,,0.00,71.15,Weather logger V3.1.,2017-05-27 11:28:00,
2017-05-27 07:34:00,59.5,59.4,29.85,North,6,0.0,0.0,99,0.00,,,0.00,51.71,Weather logger V3.1.,2017-05-27 11:34:00,
2017-05-27 07:39:00,59.7,59.5,29.85,North,7,0.0,0.0,99,0.00,,,0.00,33.98,Weather logger V3.1.,2017-05-27 11:39:00,
2017-05-27 07:44:00,59.9,59.4,29.85,ENE,59,0.0,0.0,98,0.00,,,0.00,73.54,Weather logger V3.1.,2017-05-27 11:44:00,
2017-05-27 07:49:00,60.3,59.7,29.85,NNE,21,0.0,0.0,98,0.00,,,0.00,68.89,Weather logger V3.1.,2017-05-27 11:49:00,
2017-05-27 07:54:00,60.4,59.9,29.85,ENE,66,0.0,0.0,98,0.00,,,0.00,57.25,Weather logger V3.1.,2017-05-27 11:54:00,
2017-05-27 07:59:00,60.8,60.3,29.85,ENE,64,0.0,0.0,98,0.00,,,0.00,54.83,Weather logger V3.1.,2017-05-27 11:59:00,
2017-05-27 08:04:00,60.8,60.3,29.85,ENE,65,0.0,0.0,98,0.00,,,0.00,87.52,Weather logger V3.1.,2017-05-27 12:04:00,
2017-05-27 08:09:00,61.2,60.6,29.85,ENE,67,0.0,0.0,98,0.00,,,0.00,84.25,Weather logger V3.1.,2017-05-27 12:09:00,
2017-05-27 08:14:00,61.3,60.8,29.86,ENE,67,0.0,0.0,98,0.00,,,0.00,82.94,Weather logger V3.1.,2017-05-27 12:14:00,
2017-05-27 08:19:00,61.5,61.0,29.86,ENE,67,0.0,0.0,98,0.00,,,0.00,60.71,Weather logger V3.1.,2017-05-27 12:19:00,
2017-05-27 08:24:00,61.7,61.2,29.86,ENE,67,0.0,0.0,98,0.00,,,0.00,40.97,Weather logger V3.1.,2017-05-27 12:24:00,
2017-05-27 08:30:00,61.9,61.0,29.86,ENE,69,0.0,0.0,97,0.00,,,0.00,88.20,Weather logger V3.1.,2017-05-27 12:30:00,
2017-05-27 08:35:00,62.2,61.3,29.85,ENE,68,0.0,0.0,97,0.00,,,0.00,139.45,Weather logger V3.1.,2017-05-27 12:35:00,
2017-05-27 08:40:00,62.4,61.5,29.86,ENE,69,0.0,0.0,97,0.00,,,0.00,183.63,Weather logger V3.1.,2017-05-27 12:40:00,
2017-05-27 08:45:00,62.6,61.5,29.85,NE,55,0.0,0.0,96,0.00,,,0.00,174.01,Weather logger V3.1.,2017-05-27 12:45:00,
2017-05-27 08:50:00,63.0,62.1,29.86,ENE,72,0.0,0.0,97,0.00,,,0.00,257.54,Weather logger V3.1.,2017-05-27 12:50:00,
2017-05-27 08:51:00,63.1,62.1,29.86,ENE,71,0.0,0.0,96,0.00,,,0.00,186.65,Weather logger V3.1.,2017-05-27 12:51:00,
2017-05-27 08:56:00,63.7,62.2,29.85,NE,49,0.0,0.0,95,0.00,,,0.00,257.19,Weather logger V3.1.,2017-05-27 12:56:00,
2017-05-27 09:01:00,64.4,62.6,29.85,ENE,71,0.0,0.0,94,0.00,,,0.00,23.58,Weather logger V3.1.,2017-05-27 13:01:00,
2017-05-27 09:06:00,64.8,62.1,29.87,NNE,31,0.0,0.0,91,0.00,,,0.00,10.64,Weather logger V3.1.,2017-05-27 13:06:00,
2017-05-27 09:11:00,64.8,62.1,29.86,ENE,67,0.0,0.0,91,0.00,,,0.00,8.53,Weather logger V3.1.,2017-05-27 13:11:00,
2017-05-27 09:16:00,64.8,62.4,29.86,NE,56,0.0,0.0,92,0.00,,,0.00,16.38,Weather logger V3.1.,2017-05-27 13:16:00,
2017-05-27 09:21:00,64.4,62.4,29.85,NE,56,0.0,0.0,93,0.00,,,0.00,35.56,Weather logger V3.1.,2017-05-27 13:21:00,
2017-05-27 09:26:00,63.7,61.9,29.86,ENE,65,0.0,0.0,94,0.00,,,0.00,42.85,Weather logger V3.1.,2017-05-27 13:26:00,
2017-05-27 09:31:00,63.1,61.3,29.86,ENE,65,0.0,0.0,94,0.00,,,0.00,45.66,Weather logger V3.1.,2017-05-27 13:31:00,
2017-05-27 09:36:00,63.0,61.5,29.86,ENE,68,0.0,0.0,95,0.00,,,0.00,59.13,Weather logger V3.1.,2017-05-27 13:36:00,
2017-05-27 09:42:00,63.0,61.5,29.86,ENE,70,0.0,0.0,95,0.00,,,0.00,71.36,Weather logger V3.1.,2017-05-27 13:42:00,
2017-05-27 09:47:00,63.0,61.5,29.86,ENE,69,0.0,0.0,95,0.00,,,0.00,51.84,Weather logger V3.1.,2017-05-27 13:47:00,
2017-05-27 09:52:00,63.0,61.5,29.87,ENE,70,0.0,0.0,95,0.00,,,0.00,51.50,Weather logger V3.1.,2017-05-27 13:52:00,
2017-05-27 09:57:00,63.1,61.7,29.85,ENE,68,0.0,0.0,95,0.00,,,0.00,61.60,Weather logger V3.1.,2017-05-27 13:57:00,
2017-05-27 10:02:00,63.1,61.7,29.86,ENE,73,0.0,0.0,95,0.00,,,0.00,74.77,Weather logger V3.1.,2017-05-27 14:02:00,
2017-05-27 10:07:00,63.1,61.7,29.86,NE,50,0.0,0.0,95,0.00,,,0.00,81.45,Weather logger V3.1.,2017-05-27 14:07:00,
2017-05-27 10:12:00,63.1,61.7,29.86,ENE,69,0.0,0.0,95,0.00,,,0.00,107.48,Weather logger V3.1.,2017-05-27 14:12:00,
2017-05-27 10:17:00,63.1,62.1,29.86,ENE,67,0.0,0.0,96,0.00,,,0.00,102.69,Weather logger V3.1.,2017-05-27 14:17:00,
2017-05-27 10:22:00,63.3,62.2,29.86,ENE,78,0.0,0.0,96,0.00,,,0.00,119.03,Weather logger V3.1.,2017-05-27 14:22:00,
2017-05-27 10:27:00,63.5,62.1,29.86,East,79,0.0,0.0,95,0.00,,,0.00,81.02,Weather logger V3.1.,2017-05-27 14:27:00,
2017-05-27 10:32:00,63.5,62.1,29.86,East,79,0.0,0.0,95,0.00,,,0.00,83.47,Weather logger V3.1.,2017-05-27 14:32:00,
2017-05-27 10:37:00,63.9,62.4,29.86,ENE,71,0.0,0.0,95,0.00,,,0.00,107.66,Weather logger V3.1.,2017-05-27 14:37:00,
2017-05-27 10:42:00,64.0,63.0,29.86,ENE,71,0.0,0.0,96,0.00,,,0.00,134.33,Weather logger V3.1.,2017-05-27 14:42:00,
2017-05-27 10:47:00,64.0,63.0,29.87,ENE,71,0.0,0.0,96,0.00,,,0.00,197.98,Weather logger V3.1.,2017-05-27 14:47:00,
2017-05-27 10:52:00,64.2,63.1,29.87,ENE,63,0.0,0.0,96,0.00,,,0.00,199.33,Weather logger V3.1.,2017-05-27 14:52:00,
2017-05-27 10:58:00,64.4,63.0,29.87,NNE,25,0.0,0.0,95,0.00,,,0.00,208.56,Weather logger V3.1.,2017-05-27 14:58:00,
2017-05-27 11:03:00,64.8,63.0,29.86,NNE,29,0.0,0.0,94,0.00,,,0.00,182.00,Weather logger V3.1.,2017-05-27 15:03:00,
2017-05-27 11:08:00,65.3,63.3,29.86,NE,56,0.2,2.5,93,0.00,,,0.00,205.30,Weather logger V3.1.,2017-05-27 15:08:00,
2017-05-27 11:13:00,65.7,63.0,29.87,East,84,0.0,0.0,91,0.00,,,0.00,241.52,Weather logger V3.1.,2017-05-27 15:13:00,
2017-05-27 11:18:00,66.4,63.3,29.87,ENE,68,0.0,0.0,90,0.00,,,0.00,117.36,Weather logger V3.1.,2017-05-27 15:18:00,
2017-05-27 11:23:00,66.9,63.0,29.87,ENE,75,0.0,0.0,87,0.00,,,0.00,173.40,Weather logger V3.1.,2017-05-27 15:23:00,
2017-05-27 11:28:00,67.5,63.5,29.86,ENE,78,0.0,0.0,87,0.00,,,0.00,195.17,Weather logger V3.1.,2017-05-27 15:28:00,
2017-05-27 11:33:00,67.6,63.3,29.87,ENE,69,0.0,0.0,86,0.00,,,0.00,198.16,Weather logger V3.1.,2017-05-27 15:33:00,
2017-05-27 11:38:00,68.2,63.9,29.87,NE,35,0.0,0.0,86,0.00,,,0.00,132.49,Weather logger V3.1.,2017-05-27 15:38:00,
2017-05-27 11:40:00,68.2,64.2,29.87,ENE,60,0.0,0.0,87,0.00,,,0.00,134.62,Weather logger V3.1.,2017-05-27 15:40:00,
2017-05-27 11:45:00,68.4,64.8,29.86,NW,315,3.8,4.9,88,0.00,,,0.00,173.05,Weather logger V3.1.,2017-05-27 15:45:00,
2017-05-27 11:50:00,68.4,64.4,29.86,NW,304,0.9,2.5,87,0.00,,,0.00,180.26,Weather logger V3.1.,2017-05-27 15:50:00,
2017-05-27 11:55:00,68.5,64.6,29.86,NNE,28,0.0,0.0,87,0.00,,,0.00,238.26,Weather logger V3.1.,2017-05-27 15:55:00,
2017-05-27 12:00:00,68.7,64.4,29.86,WSW,245,0.7,2.5,86,0.00,,,0.00,467.34,Weather logger V3.1.,2017-05-27 16:00:00,
2017-05-27 12:06:00,68.9,63.5,29.87,NW,314,4.5,7.6,83,0.00,,,0.00,382.99,Weather logger V3.1.,2017-05-27 16:06:00,
2017-05-27 12:11:00,69.3,62.6,29.86,South,180,2.5,2.5,79,0.00,,,0.00,565.83,Weather logger V3.1.,2017-05-27 16:11:00,
2017-05-27 12:16:00,69.6,61.7,29.86,WNW,301,4.9,7.6,76,0.00,,,0.00,690.71,Weather logger V3.1.,2017-05-27 16:16:00,
2017-05-27 12:21:00,70.3,61.7,29.86,NE,39,0.2,2.5,74,0.00,,,0.00,452.99,Weather logger V3.1.,2017-05-27 16:21:00,
2017-05-27 12:26:00,70.9,62.2,29.86,WNW,302,4.7,4.9,74,0.00,,,0.00,335.96,Weather logger V3.1.,2017-05-27 16:26:00,
2017-05-27 12:31:00,71.1,62.8,29.86,SSE,158,1.6,2.5,75,0.00,,,0.00,280.24,Weather logger V3.1.,2017-05-27 16:31:00,
2017-05-27 12:36:00,71.1,64.2,29.86,ENE,62,0.2,2.5,79,0.00,,,0.00,338.31,Weather logger V3.1.,2017-05-27 16:36:00,
2017-05-27 12:41:00,71.1,63.9,29.87,SSW,194,4.0,4.9,78,0.00,,,0.00,326.30,Weather logger V3.1.,2017-05-27 16:41:00,
2017-05-27 12:46:00,70.9,64.0,29.87,WNW,296,3.8,4.9,79,0.00,,,0.00,291.25,Weather logger V3.1.,2017-05-27 16:46:00,
2017-05-27 12:51:00,70.3,63.1,29.86,West,263,4.7,7.6,78,0.00,,,0.00,427.85,Weather logger V3.1.,2017-05-27 16:51:00,
2017-05-27 12:56:00,70.2,63.3,29.87,SE,133,2.5,4.9,79,0.00,,,0.00,552.19,Weather logger V3.1.,2017-05-27 16:56:00,
2017-05-27 13:01:00,70.5,62.2,29.86,NW,311,4.0,4.9,75,0.00,,,0.00,431.47,Weather logger V3.1.,2017-05-27 17:01:00,
2017-05-27 13:06:00,70.7,62.4,29.86,WNW,293,5.4,7.6,75,0.00,,,0.00,544.45,Weather logger V3.1.,2017-05-27 17:06:00,
2017-05-27 13:11:00,70.9,63.0,29.87,NW,308,5.6,10.1,76,0.00,,,0.00,233.14,Weather logger V3.1.,2017-05-27 17:11:00,
2017-05-27 13:16:00,71.1,63.5,29.87,NW,310,5.4,7.6,77,0.00,,,0.00,243.94,Weather logger V3.1.,2017-05-27 17:16:00,
2017-05-27 13:22:00,71.2,64.4,29.87,South,172,1.8,2.5,79,0.00,,,0.00,276.69,Weather logger V3.1.,2017-05-27 17:22:00,
2017-05-27 13:27:00,71.2,64.0,29.86,West,269,1.6,2.5,78,0.00,,,0.00,378.62,Weather logger V3.1.,2017-05-27 17:27:00,
2017-05-27 13:32:00,71.1,63.1,29.86,NW,304,5.6,7.6,76,0.00,,,0.00,403.62,Weather logger V3.1.,2017-05-27 17:32:00,
2017-05-27 13:37:00,70.9,62.6,29.86,WSW,251,2.2,2.5,75,0.00,,,0.00,443.26,Weather logger V3.1.,2017-05-27 17:37:00,
2017-05-27 13:42:00,71.1,62.8,29.87,SW,226,2.9,4.9,75,0.00,,,0.00,393.04,Weather logger V3.1.,2017-05-27 17:42:00,
2017-05-27 13:47:00,71.2,62.6,29.87,South,184,1.3,2.5,74,0.00,,,0.00,326.20,Weather logger V3.1.,2017-05-27 17:47:00,
2017-05-27 13:52:00,71.4,63.1,29.87,NNE,25,0.7,2.5,75,0.00,,,0.00,501.01,Weather logger V3.1.,2017-05-27 17:52:00,
2017-05-27 13:57:00,71.6,63.3,29.85,SSE,166,6.5,7.6,75,0.00,,,0.00,348.93,Weather logger V3.1.,2017-05-27 17:57:00,
2017-05-27 14:02:00,71.8,63.5,29.85,WNW,291,4.0,4.9,75,0.00,,,0.00,417.76,Weather logger V3.1.,2017-05-27 18:02:00,
2017-05-27 14:07:00,72.0,63.0,29.86,WNW,293,4.0,4.9,73,0.00,,,0.00,293.06,Weather logger V3.1.,2017-05-27 18:07:00,
2017-05-27 14:12:00,72.0,63.3,29.86,West,261,4.0,4.9,74,0.00,,,0.00,183.17,Weather logger V3.1.,2017-05-27 18:12:00,
2017-05-27 14:17:00,72.0,64.4,29.86,WNW,299,2.2,4.9,77,0.00,,,0.00,200.07,Weather logger V3.1.,2017-05-27 18:17:00,
2017-05-27 14:22:00,72.0,64.0,29.87,NW,317,4.5,4.9,76,0.00,,,0.00,215.60,Weather logger V3.1.,2017-05-27 18:22:00,
2017-05-27 14:27:00,72.0,64.4,29.87,ESE,113,0.0,0.0,77,0.00,,,0.00,305.38,Weather logger V3.1.,2017-05-27 18:27:00,
2017-05-27 14:32:00,72.0,63.3,29.87,WSW,238,5.4,7.6,74,0.00,,,0.00,326.20,Weather logger V3.1.,2017-05-27 18:32:00,
2017-05-27 14:38:00,72.1,63.9,29.86,WNW,289,7.6,10.1,75,0.00,,,0.00,447.45,Weather logger V3.1.,2017-05-27 18:38:00,
2017-05-27 14:43:00,72.3,64.4,29.86,WNW,290,5.6,7.6,76,0.00,,,0.00,656.89,Weather logger V3.1.,2017-05-27 18:43:00,
2017-05-27 14:48:00,72.9,64.2,29.86,WSW,252,0.2,2.5,74,0.00,,,0.00,230.05,Weather logger V3.1.,2017-05-27 18:48:00,
2017-05-27 14:51:00,73.0,63.9,29.86,SSE,158,1.8,4.9,73,0.00,,,0.00,192.72,Weather logger V3.1.,2017-05-27 18:51:00,